| time (UTC) | temp F | wind direction | speed MPH | gust MPH | rain 1hr in | rain 24hr in | rain mn in | humidity % | barometer mb |
| 20260903193014 | 85 | 128 | 3.0 | 6.0 | 0.00 | 0.04 | 0.04 | 97 | 1014.5 |
| 20260903192511 | 85 | 323 | 0.0 | 0.0 | 0.00 | 0.04 | 0.04 | 99 | 1014.6 |
| 20260903192011 | 84 | 297 | 0.0 | 0.0 | 0.00 | 0.04 | 0.04 | 99 | 1014.9 |
| 20260903191507 | 84 | 73 | 3.0 | 5.0 | 0.00 | 0.04 | 0.04 | 99 | 1014.5 |
| 20260903191007 | 84 | 75 | 0.0 | 1.0 | 0.00 | 0.04 | 0.04 | 99 | 1014.6 |
| 20260903190501 | 84 | 337 | 0.0 | 0.0 | 0.00 | 0.04 | 0.04 | 99 | 1014.8 |
| 20260903185959 | 84 | 36 | 0.0 | 1.0 | 0.00 | 0.04 | 0.04 | 99 | 1014.8 |
| 20260903185451 | 83 | 307 | 0.0 | 0.0 | 0.07 | 0.04 | 0.04 | 98 | 1014.9 |
| 20260903184950 | 83 | 15 | 0.0 | 1.0 | 0.07 | 0.04 | 0.04 | 98 | 1015.1 |
| 20260903184448 | 83 | 47 | 0.0 | 0.0 | 0.00 | 0.03 | 0.03 | 98 | 1014.9 |
| 20260903183947 | 83 | 191 | 1.0 | 1.0 | 0.00 | 0.03 | 0.03 | 97 | 1015.0 |
| 20260903183442 | 82 | 312 | 0.0 | 0.0 | 0.00 | 0.03 | 0.03 | 97 | 1015.0 |
| 20260903182941 | 82 | 78 | 2.0 | 2.0 | 0.00 | 0.03 | 0.03 | 97 | 1015.1 |
| 20260903182440 | 83 | 2 | 3.0 | 3.0 | 0.00 | 0.03 | 0.03 | 97 | 1015.1 |
| 20260903181936 | 83 | 107 | 1.0 | 2.0 | 0.00 | 0.03 | 0.03 | 97 | 1015.5 |
| 20260903181424 | 83 | 349 | 0.0 | 0.0 | 0.00 | 0.03 | 0.03 | 97 | 1015.3 |
| 20260903180924 | 83 | 336 | 0.0 | 0.0 | 0.00 | 0.03 | 0.03 | 97 | 1015.6 |
| 20260903180419 | 83 | 98 | 1.0 | 2.0 | 0.00 | 0.03 | 0.03 | 97 | 1015.6 |
| 20260903175918 | 83 | 324 | 0.0 | 0.0 | 0.00 | 0.03 | 0.03 | 97 | 1015.8 |
| 20260903175413 | 82 | 273 | 1.0 | 1.0 | 0.00 | 0.03 | 0.03 | 97 | 1016.0 |
| 20260903174907 | 82 | 313 | 0.0 | 0.0 | 0.00 | 0.03 | 0.03 | 97 | 1015.9 |
| 20260903174402 | 82 | 241 | 0.0 | 0.0 | 0.00 | 0.03 | 0.03 | 97 | 1015.8 |
| 20260903173856 | 83 | 343 | 0.0 | 1.0 | 0.00 | 0.03 | 0.03 | 98 | 1015.8 |
| 20260903173351 | 82 | 343 | 1.0 | 1.0 | 0.00 | 0.03 | 0.03 | 98 | 1015.5 |
| 20260903172847 | 83 | 56 | 0.0 | 1.0 | 0.00 | 0.03 | 0.03 | 98 | 1015.7 |
| 20260903172342 | 83 | 117 | 6.0 | 8.0 | 0.05 | 0.03 | 0.03 | 98 | 1015.7 |
| 20260903171838 | 83 | 142 | 3.0 | 3.0 | 0.12 | 0.03 | 0.03 | 97 | 1015.6 |
| 20260903171333 | 84 | 168 | 2.0 | 3.0 | 0.12 | 0.02 | 0.02 | 95 | 1015.5 |
| 20260903170832 | 86 | 91 | 2.0 | 2.0 | 0.05 | 0.01 | 0.01 | 91 | 1015.5 |
| 20260903170327 | 87 | 252 | 1.0 | 2.0 | 0.05 | 0.01 | 0.01 | 94 | 1015.4 |
| 20260903165825 | 87 | 86 | 1.0 | 1.0 | 0.00 | 0.00 | 0.00 | 92 | 1015.5 |
| 20260903165325 | 88 | 80 | 1.0 | 2.0 | 0.00 | 0.00 | 0.00 | 91 | 1015.4 |
| 20260903164820 | 93 | 199 | 4.0 | 6.0 | 0.00 | 0.00 | 0.00 | 81 | 1015.6 |
| 20260903164315 | 93 | 123 | 2.0 | 3.0 | 0.00 | 0.00 | 0.00 | 76 | 1015.7 |
| 20260903163814 | 93 | 287 | 0.0 | 0.0 | 0.00 | 0.00 | 0.00 | 74 | 1015.7 |
| 20260903163312 | 95 | 224 | 2.0 | 3.0 | 0.00 | 0.00 | 0.00 | 71 | 1016.0 |
| 20260903162807 | 93 | 82 | 0.0 | 1.0 | 0.00 | 0.00 | 0.00 | 74 | 1015.8 |
| 20260903162306 | 94 | 98 | 3.0 | 5.0 | 0.00 | 0.00 | 0.00 | 74 | 1015.9 |
| 20260903161759 | 94 | 86 | 4.0 | 6.0 | 0.00 | 0.00 | 0.00 | 74 | 1015.9 |
| 20260903161254 | 94 | 196 | 2.0 | 2.0 | 0.00 | 0.00 | 0.00 | 74 | 1016.1 |
| 20260903160749 | 92 | 333 | 1.0 | 2.0 | 0.00 | 0.00 | 0.00 | 77 | 1016.2 |
| 20260903160248 | 93 | 139 | 4.0 | 5.0 | 0.00 | 0.00 | 0.00 | 76 | 1016.2 |
| 20260903155747 | 92 | 125 | 0.0 | 0.0 | 0.00 | 0.00 | 0.00 | 77 | 1016.1 |
| 20260903155242 | 93 | 177 | 3.0 | 3.0 | 0.00 | 0.00 | 0.00 | 75 | 1016.2 |
| 20260903154738 | 93 | 197 | 1.0 | 2.0 | 0.00 | 0.00 | 0.00 | 76 | 1016.3 |
| 20260903154234 | 92 | 273 | 3.0 | 3.0 | 0.00 | 0.00 | 0.00 | 77 | 1016.2 |
| 20260903153729 | 93 | 192 | 3.0 | 5.0 | 0.00 | 0.00 | 0.00 | 76 | 1016.2 |
| 20260903153225 | 93 | 78 | 1.0 | 2.0 | 0.00 | 0.00 | 0.00 | 77 | 1016.3 |
| 20260903152721 | 93 | 292 | 0.0 | 1.0 | 0.00 | 0.00 | 0.00 | 79 | 1016.3 |
| 20260903152217 | 93 | 106 | 3.0 | 3.0 | 0.00 | 0.00 | 0.00 | 75 | 1016.3 |
| 20260903151716 | 93 | 248 | 0.0 | 0.0 | 0.00 | 0.00 | 0.00 | 77 | 1016.2 |
| 20260903151212 | 93 | 239 | 3.0 | 5.0 | 0.00 | 0.00 | 0.00 | 77 | 1016.4 |
| 20260903150707 | 92 | 206 | 1.0 | 1.0 | 0.00 | 0.00 | 0.00 | 77 | 1016.4 |
| 20260903150201 | 92 | 196 | 2.0 | 2.0 | 0.00 | 0.00 | 0.00 | 77 | 1016.4 |
| 20260903145655 | 92 | 187 | 1.0 | 5.0 | 0.00 | 0.00 | 0.00 | 76 | 1016.6 |
| 20260903145151 | 93 | 72 | 1.0 | 1.0 | 0.00 | 0.00 | 0.00 | 77 | 1016.4 |
| 20260903144649 | 93 | 233 | 2.0 | 2.0 | 0.00 | 0.00 | 0.00 | 77 | 1016.3 |
| 20260903144146 | 93 | 160 | 5.0 | 7.0 | 0.00 | 0.00 | 0.00 | 77 | 1016.2 |
| 20260903143641 | 92 | 262 | 3.0 | 3.0 | 0.00 | 0.00 | 0.00 | 78 | 1016.2 |
| 20260903143137 | 91 | 192 | 4.0 | 5.0 | 0.00 | 0.00 | 0.00 | 79 | 1016.2 |
| 20260903142633 | 92 | 175 | 3.0 | 3.0 | 0.00 | 0.00 | 0.00 | 77 | 1016.1 |
| 20260903142129 | 92 | 257 | 0.0 | 1.0 | 0.00 | 0.00 | 0.00 | 77 | 1016.1 |
| 20260903141624 | 91 | 248 | 1.0 | 1.0 | 0.00 | 0.00 | 0.00 | 79 | 1016.1 |
| 20260903141119 | 90 | 210 | 3.0 | 3.0 | 0.00 | 0.00 | 0.00 | 80 | 1016.1 |
| 20260903140615 | 91 | 228 | 2.0 | 3.0 | 0.00 | 0.00 | 0.00 | 80 | 1016.0 |
| 20260903140111 | 91 | 135 | 4.0 | 5.0 | 0.00 | 0.00 | 0.00 | 78 | 1016.2 |
| 20260903135607 | 90 | 224 | 1.0 | 1.0 | 0.00 | 0.00 | 0.00 | 80 | 1016.1 |
| 20260903135106 | 90 | 185 | 3.0 | 3.0 | 0.00 | 0.00 | 0.00 | 80 | 1015.8 |
| 20260903134605 | 90 | 225 | 0.0 | 0.0 | 0.00 | 0.00 | 0.00 | 79 | 1015.9 |
| 20260903134101 | 89 | 126 | 2.0 | 2.0 | 0.00 | 0.00 | 0.00 | 81 | 1015.8 |
| 20260903133559 | 87 | 230 | 1.0 | 1.0 | 0.00 | 0.00 | 0.00 | 83 | 1015.8 |
| 20260903133054 | 87 | 255 | 3.0 | 3.0 | 0.00 | 0.00 | 0.00 | 83 | 1015.8 |
| 20260903132549 | 86 | 193 | 3.0 | 5.0 | 0.00 | 0.00 | 0.00 | 85 | 1015.6 |
| 20260903132044 | 86 | 218 | 3.0 | 3.0 | 0.00 | 0.00 | 0.00 | 88 | 1015.5 |
| 20260903131544 | 86 | 233 | 3.0 | 3.0 | 0.00 | 0.00 | 0.00 | 89 | 1015.8 |
| 20260903131043 | 86 | 226 | 2.0 | 5.0 | 0.00 | 0.00 | 0.00 | 89 | 1015.7 |
| 20260903130538 | 86 | 213 | 1.0 | 2.0 | 0.00 | 0.00 | 0.00 | 88 | 1015.9 |
| 20260903130033 | 85 | 277 | 0.0 | 1.0 | 0.00 | 0.00 | 0.00 | 90 | 1015.9 |
| 20260903125531 | 85 | 243 | 2.0 | 2.0 | 0.00 | 0.00 | 0.00 | 90 | 1015.7 |
| 20260903125027 | 84 | 254 | 0.0 | 0.0 | 0.00 | 0.00 | 0.00 | 91 | 1015.7 |
| 20260903124526 | 84 | 195 | 2.0 | 3.0 | 0.00 | 0.00 | 0.00 | 92 | 1015.9 |
| 20260903124021 | 84 | 242 | 0.0 | 1.0 | 0.00 | 0.00 | 0.00 | 93 | 1015.9 |
| 20260903123521 | 83 | 199 | 1.0 | 2.0 | 0.00 | 0.00 | 0.00 | 96 | 1015.8 |
| 20260903123020 | 82 | 135 | 1.0 | 1.0 | 0.00 | 0.00 | 0.00 | 98 | 1015.8 |
| 20260903122514 | 81 | 257 | 1.0 | 1.0 | 0.00 | 0.00 | 0.00 | 99 | 1015.9 |
| 20260903122013 | 80 | 200 | 2.0 | 2.0 | 0.00 | 0.00 | 0.00 | 99 | 1015.6 |
| 20260903121503 | 80 | 222 | 1.0 | 1.0 | 0.00 | 0.00 | 0.00 | 99 | 1015.9 |
| 20260903120959 | 80 | 203 | 1.0 | 1.0 | 0.00 | 0.00 | 0.00 | 99 | 1015.8 |
| 20260903120457 | 80 | 243 | 0.0 | 0.0 | 0.00 | 0.00 | 0.00 | 99 | 1015.8 |
| 20260903115956 | 80 | 266 | 0.0 | 0.0 | 0.00 | 0.00 | 0.00 | 99 | 1015.8 |
| 20260903115455 | 80 | 318 | 0.0 | 0.0 | 0.00 | 0.00 | 0.00 | 99 | 1015.7 |
| 20260903114950 | 79 | 322 | 0.0 | 0.0 | 0.00 | 0.00 | 0.00 | 99 | 1015.4 |
| 20260903114445 | 79 | 333 | 0.0 | 0.0 | 0.00 | 0.00 | 0.00 | 99 | 1015.5 |
| 20260903113941 | 79 | 266 | 0.0 | 0.0 | 0.00 | 0.00 | 0.00 | 99 | 1015.6 |
| 20260903113437 | 79 | 282 | 0.0 | 0.0 | 0.00 | 0.00 | 0.00 | 99 | 1015.2 |
| 20260903112932 | 79 | 269 | 0.0 | 0.0 | 0.00 | 0.00 | 0.00 | 99 | 1015.1 |
| 20260903112428 | 79 | 269 | 0.0 | 0.0 | 0.00 | 0.00 | 0.00 | 99 | 1015.2 |
| 20260903111927 | 79 | 262 | 0.0 | 0.0 | 0.00 | 0.00 | 0.00 | 99 | 1015.0 |
| 20260903111427 | 79 | 280 | 0.0 | 0.0 | 0.00 | 0.00 | 0.00 | 99 | 1015.0 |
| 20260903110923 | 79 | 288 | 0.0 | 0.0 | 0.00 | 0.00 | 0.00 | 99 | 1014.9 |
| 20260903110419 | 79 | 289 | 0.0 | 0.0 | 0.00 | 0.00 | 0.00 | 99 | 1014.7 |
| 20260903105914 | 79 | 288 | 0.0 | 0.0 | 0.00 | 0.00 | 0.00 | 99 | 1014.7 |
| 20260903105409 | 79 | 288 | 0.0 | 0.0 | 0.00 | 0.00 | 0.00 | 99 | 1014.7 |
| 20260903104908 | 79 | 288 | 0.0 | 0.0 | 0.00 | 0.00 | 0.00 | 99 | 1014.4 |
| 20260903104402 | 79 | 288 | 0.0 | 0.0 | 0.00 | 0.00 | 0.00 | 99 | 1014.3 |
| 20260903103900 | 79 | 288 | 0.0 | 0.0 | 0.00 | 0.00 | 0.00 | 99 | 1014.5 |
| 20260903103355 | 79 | 288 | 0.0 | 0.0 | 0.00 | 0.00 | 0.00 | 99 | 1014.3 |
| 20260903102850 | 79 | 288 | 0.0 | 0.0 | 0.00 | 0.00 | 0.00 | 99 | 1014.1 |
| 20260903102350 | 79 | 288 | 0.0 | 0.0 | 0.00 | 0.00 | 0.00 | 99 | 1014.5 |
| 20260903101845 | 79 | 287 | 0.0 | 0.0 | 0.00 | 0.00 | 0.00 | 99 | 1014.4 |
| 20260903101340 | 79 | 291 | 0.0 | 0.0 | 0.00 | 0.00 | 0.00 | 99 | 1014.5 |
| 20260903100835 | 79 | 296 | 0.0 | 0.0 | 0.00 | 0.00 | 0.00 | 99 | 1014.5 |
| 20260903100336 | 79 | 296 | 0.0 | 0.0 | 0.00 | 0.00 | 0.00 | 99 | 1014.5 |
| 20260903095832 | 79 | 296 | 0.0 | 0.0 | 0.00 | 0.00 | 0.00 | 99 | 1014.2 |
| 20260903095327 | 79 | 296 | 0.0 | 0.0 | 0.00 | 0.00 | 0.00 | 99 | 1014.3 |
| 20260903094822 | 79 | 296 | 0.0 | 0.0 | 0.00 | 0.00 | 0.00 | 99 | 1014.1 |
| 20260903094317 | 79 | 296 | 0.0 | 0.0 | 0.00 | 0.00 | 0.00 | 99 | 1014.2 |
| 20260903093812 | 79 | 296 | 0.0 | 0.0 | 0.00 | 0.00 | 0.00 | 99 | 1014.3 |
| 20260903093308 | 79 | 296 | 0.0 | 0.0 | 0.00 | 0.00 | 0.00 | 99 | 1014.2 |
| 20260903092808 | 79 | 296 | 0.0 | 0.0 | 0.00 | 0.00 | 0.00 | 99 | 1014.3 |
| 20260903092306 | 79 | 296 | 0.0 | 0.0 | 0.00 | 0.00 | 0.00 | 99 | 1014.0 |
| 20260903091802 | 79 | 295 | 0.0 | 0.0 | 0.00 | 0.00 | 0.00 | 99 | 1014.0 |
| 20260903091255 | 79 | 294 | 0.0 | 0.0 | 0.00 | 0.00 | 0.00 | 99 | 1014.0 |
| 20260903090752 | 79 | 294 | 0.0 | 0.0 | 0.00 | 0.00 | 0.00 | 99 | 1014.2 |
| 20260903090250 | 79 | 294 | 0.0 | 0.0 | 0.00 | 0.00 | 0.00 | 99 | 1014.2 |
| 20260903085749 | 79 | 294 | 0.0 | 0.0 | 0.00 | 0.00 | 0.00 | 99 | 1014.0 |
| 20260903085244 | 79 | 285 | 0.0 | 0.0 | 0.00 | 0.00 | 0.00 | 99 | 1014.0 |
| 20260903084742 | 79 | 242 | 1.0 | 2.0 | 0.00 | 0.00 | 0.00 | 99 | 1014.1 |
| 20260903084237 | 80 | 298 | 0.0 | 0.0 | 0.00 | 0.00 | 0.00 | 99 | 1014.1 |
| 20260903083732 | 80 | 263 | 0.0 | 0.0 | 0.00 | 0.00 | 0.00 | 99 | 1014.0 |
| 20260903083227 | 80 | 296 | 0.0 | 0.0 | 0.00 | 0.00 | 0.00 | 99 | 1013.9 |
| 20260903082726 | 80 | 302 | 0.0 | 0.0 | 0.00 | 0.00 | 0.00 | 99 | 1013.8 |
| 20260903082223 | 80 | 278 | 0.0 | 0.0 | 0.00 | 0.00 | 0.00 | 99 | 1014.3 |
| 20260903081722 | 80 | 281 | 0.0 | 0.0 | 0.00 | 0.00 | 0.00 | 99 | 1014.3 |
| 20260903081218 | 80 | 215 | 1.0 | 2.0 | 0.00 | 0.00 | 0.00 | 99 | 1014.0 |
| 20260903080714 | 81 | 241 | 1.0 | 2.0 | 0.00 | 0.00 | 0.00 | 99 | 1014.0 |
| 20260903080212 | 81 | 250 | 1.0 | 2.0 | 0.00 | 0.00 | 0.00 | 99 | 1014.0 |
| 20260903075710 | 81 | 282 | 0.0 | 0.0 | 0.00 | 0.00 | 0.00 | 99 | 1014.1 |
| 20260903075206 | 81 | 212 | 0.0 | 1.0 | 0.00 | 0.00 | 0.00 | 99 | 1014.0 |
| 20260903074705 | 81 | 241 | 0.0 | 1.0 | 0.00 | 0.00 | 0.00 | 99 | 1014.1 |
| 20260903074200 | 81 | 273 | 0.0 | 0.0 | 0.00 | 0.00 | 0.00 | 99 | 1013.9 |
| 20260903073655 | 81 | 275 | 0.0 | 0.0 | 0.00 | 0.00 | 0.00 | 99 | 1014.0 |
| 20260903073150 | 81 | 326 | 0.0 | 0.0 | 0.00 | 0.00 | 0.00 | 99 | 1014.0 |
| 20260903072646 | 81 | 326 | 0.0 | 0.0 | 0.00 | 0.00 | 0.00 | 99 | 1013.8 |
| 20260903072142 | 81 | 326 | 0.0 | 0.0 | 0.00 | 0.00 | 0.00 | 99 | 1013.9 |
| 20260903071639 | 81 | 327 | 0.0 | 0.0 | 0.00 | 0.00 | 0.00 | 99 | 1013.9 |
| 20260903071134 | 81 | 330 | 0.0 | 0.0 | 0.00 | 0.00 | 0.00 | 99 | 1013.9 |
| 20260903070634 | 81 | 330 | 0.0 | 0.0 | 0.00 | 0.00 | 0.00 | 99 | 1013.9 |
| 20260903070129 | 81 | 331 | 0.0 | 0.0 | 0.00 | 0.00 | 0.00 | 99 | 1014.0 |
| 20260903065629 | 81 | 310 | 0.0 | 0.0 | 0.00 | 0.00 | 0.00 | 99 | 1014.0 |
| 20260903065124 | 81 | 310 | 0.0 | 0.0 | 0.00 | 0.00 | 0.00 | 99 | 1013.8 |
| 20260903064618 | 81 | 312 | 0.0 | 0.0 | 0.00 | 0.00 | 0.00 | 99 | 1013.9 |
| 20260903064113 | 81 | 320 | 0.0 | 0.0 | 0.00 | 0.00 | 0.00 | 99 | 1013.8 |
| 20260903063609 | 81 | 321 | 0.0 | 0.0 | 0.00 | 0.00 | 0.00 | 99 | 1014.1 |
| 20260903063104 | 81 | 321 | 0.0 | 0.0 | 0.00 | 0.00 | 0.00 | 99 | 1014.1 |
| 20260903062559 | 81 | 310 | 0.0 | 0.0 | 0.00 | 0.00 | 0.00 | 99 | 1014.1 |
| 20260903062054 | 81 | 337 | 0.0 | 0.0 | 0.00 | 0.00 | 0.00 | 99 | 1014.4 |
| 20260903061550 | 81 | 337 | 0.0 | 0.0 | 0.00 | 0.00 | 0.00 | 99 | 1014.3 |
| 20260903061049 | 81 | 331 | 0.0 | 0.0 | 0.00 | 0.00 | 0.00 | 99 | 1014.4 |
| 20260903060549 | 80 | 329 | 0.0 | 0.0 | 0.00 | 0.00 | 0.00 | 99 | 1014.5 |
| 20260903060044 | 80 | 326 | 0.0 | 0.0 | 0.00 | 0.00 | 0.00 | 99 | 1014.6 |
| 20260903055541 | 80 | 323 | 0.0 | 0.0 | 0.00 | 0.00 | 0.00 | 99 | 1014.7 |
| 20260903055040 | 80 | 323 | 0.0 | 0.0 | 0.00 | 0.00 | 0.00 | 99 | 1014.6 |
| 20260903054536 | 80 | 324 | 0.0 | 0.0 | 0.00 | 0.00 | 0.00 | 99 | 1014.7 |
| 20260903054032 | 80 | 322 | 0.0 | 0.0 | 0.00 | 0.00 | 0.00 | 99 | 1014.8 |
| 20260903053532 | 80 | 321 | 0.0 | 0.0 | 0.00 | 0.00 | 0.00 | 99 | 1015.0 |
| 20260903053028 | 80 | 321 | 0.0 | 0.0 | 0.00 | 0.00 | 0.00 | 99 | 1015.0 |
| 20260903052523 | 80 | 321 | 0.0 | 0.0 | 0.00 | 0.00 | 0.00 | 99 | 1015.0 |
| 20260903052019 | 80 | 321 | 0.0 | 0.0 | 0.00 | 0.00 | 0.00 | 99 | 1015.0 |
| 20260903051514 | 80 | 320 | 0.0 | 0.0 | 0.00 | 0.00 | 0.00 | 99 | 1015.1 |
| 20260903051010 | 80 | 320 | 0.0 | 0.0 | 0.00 | 0.00 | 0.00 | 99 | 1015.3 |
| 20260903050509 | 80 | 320 | 0.0 | 0.0 | 0.00 | 0.00 | 0.00 | 99 | 1015.0 |
| 20260903050004 | 80 | 320 | 0.0 | 0.0 | 0.00 | 0.00 | 0.00 | 99 | 1015.2 |
| 20260903045459 | 80 | 320 | 0.0 | 0.0 | 0.00 | 0.00 | 0.00 | 99 | 1015.2 |
| 20260903044955 | 80 | 321 | 0.0 | 0.0 | 0.00 | 0.00 | 0.00 | 99 | 1015.4 |
| 20260903044450 | 80 | 321 | 0.0 | 0.0 | 0.00 | 0.00 | 0.00 | 99 | 1015.7 |
| 20260903043947 | 80 | 321 | 0.0 | 0.0 | 0.00 | 0.00 | 0.00 | 99 | 1015.5 |
| 20260903043442 | 81 | 320 | 0.0 | 0.0 | 0.00 | 0.00 | 0.00 | 99 | 1015.5 |
| 20260903042940 | 80 | 320 | 0.0 | 0.0 | 0.00 | 0.00 | 0.00 | 99 | 1015.6 |
| 20260903042436 | 81 | 320 | 0.0 | 0.0 | 0.00 | 0.00 | 0.00 | 99 | 1015.7 |
| 20260903041931 | 81 | 320 | 0.0 | 0.0 | 0.00 | 0.00 | 0.00 | 99 | 1015.8 |
| 20260903041428 | 81 | 321 | 0.0 | 0.0 | 0.00 | 0.00 | 0.00 | 99 | 1015.9 |
| 20260903040924 | 80 | 318 | 0.0 | 0.0 | 0.00 | 0.00 | 0.00 | 99 | 1015.9 |
| 20260903040422 | 81 | 318 | 0.0 | 0.0 | 0.00 | 0.00 | 0.00 | 99 | 1015.9 |
| 20260903035919 | 81 | 318 | 0.0 | 0.0 | 0.00 | 0.00 | 0.00 | 99 | 1016.2 |
| 20260903035414 | 81 | 321 | 0.0 | 0.0 | 0.00 | 0.00 | 0.00 | 99 | 1016.0 |
| 20260903034914 | 81 | 314 | 0.0 | 0.0 | 0.00 | 0.00 | 0.00 | 99 | 1016.1 |
| 20260903034409 | 81 | 306 | 0.0 | 0.0 | 0.00 | 0.00 | 0.00 | 99 | 1016.2 |
| 20260903033904 | 81 | 306 | 0.0 | 0.0 | 0.00 | 0.00 | 0.00 | 99 | 1016.2 |
| 20260903033359 | 81 | 307 | 0.0 | 0.0 | 0.00 | 0.00 | 0.00 | 99 | 1016.0 |
| 20260903032854 | 81 | 307 | 0.0 | 0.0 | 0.00 | 0.00 | 0.00 | 99 | 1016.2 |
| 20260903032350 | 81 | 308 | 0.0 | 0.0 | 0.00 | 0.00 | 0.00 | 99 | 1016.2 |
| 20260903031845 | 81 | 308 | 0.0 | 0.0 | 0.00 | 0.00 | 0.00 | 99 | 1016.0 |
| 20260903031344 | 81 | 307 | 0.0 | 0.0 | 0.00 | 0.00 | 0.00 | 99 | 1016.3 |
| 20260903030840 | 81 | 307 | 0.0 | 0.0 | 0.00 | 0.00 | 0.00 | 99 | 1016.3 |
| 20260903030336 | 81 | 309 | 0.0 | 0.0 | 0.00 | 0.00 | 0.00 | 99 | 1015.8 |
| 20260903025831 | 81 | 309 | 0.0 | 0.0 | 0.00 | 0.00 | 0.00 | 99 | 1016.0 |
| 20260903025327 | 81 | 308 | 0.0 | 0.0 | 0.00 | 0.00 | 0.00 | 99 | 1016.2 |
| 20260903024826 | 81 | 306 | 0.0 | 0.0 | 0.00 | 0.00 | 0.00 | 99 | 1016.2 |
| 20260903024326 | 82 | 309 | 0.0 | 0.0 | 0.00 | 0.00 | 0.00 | 99 | 1016.0 |
| 20260903023822 | 82 | 307 | 0.0 | 0.0 | 0.00 | 0.00 | 0.00 | 99 | 1015.9 |
| 20260903023317 | 82 | 338 | 0.0 | 0.0 | 0.00 | 0.00 | 0.00 | 99 | 1015.7 |
| 20260903022812 | 81 | 337 | 0.0 | 0.0 | 0.00 | 0.00 | 0.00 | 99 | 1015.6 |
| 20260903022310 | 81 | 355 | 0.0 | 0.0 | 0.00 | 0.00 | 0.00 | 99 | 1016.0 |
| 20260903021805 | 82 | 315 | 0.0 | 0.0 | 0.00 | 0.00 | 0.00 | 99 | 1015.7 |
| 20260903021300 | 82 | 315 | 0.0 | 0.0 | 0.00 | 0.00 | 0.00 | 99 | 1015.8 |
| 20260903020754 | 82 | 315 | 0.0 | 0.0 | 0.00 | 0.00 | 0.00 | 99 | 1015.9 |
| 20260903020249 | 82 | 314 | 0.0 | 0.0 | 0.00 | 0.00 | 0.00 | 99 | 1015.8 |
| 20260903015745 | 82 | 313 | 0.0 | 0.0 | 0.00 | 0.00 | 0.00 | 98 | 1015.9 |
| 20260903015240 | 82 | 309 | 0.0 | 0.0 | 0.00 | 0.00 | 0.00 | 98 | 1015.9 |
| 20260903014735 | 82 | 307 | 0.0 | 0.0 | 0.00 | 0.00 | 0.00 | 98 | 1015.9 |
| 20260903014234 | 82 | 309 | 0.0 | 0.0 | 0.00 | 0.00 | 0.00 | 98 | 1015.8 |
| 20260903013730 | 82 | 309 | 0.0 | 0.0 | 0.00 | 0.00 | 0.00 | 97 | 1015.6 |
| 20260903013229 | 82 | 308 | 0.0 | 0.0 | 0.00 | 0.00 | 0.00 | 97 | 1015.9 |
| 20260903012728 | 82 | 305 | 0.0 | 0.0 | 0.00 | 0.00 | 0.00 | 97 | 1015.8 |
| 20260903012227 | 82 | 305 | 0.0 | 0.0 | 0.00 | 0.00 | 0.00 | 97 | 1015.7 |
| 20260903011722 | 82 | 305 | 0.0 | 0.0 | 0.00 | 0.00 | 0.00 | 97 | 1015.6 |
| 20260903011221 | 82 | 305 | 0.0 | 0.0 | 0.00 | 0.00 | 0.00 | 96 | 1015.8 |
| 20260903010718 | 83 | 305 | 0.0 | 0.0 | 0.00 | 0.00 | 0.00 | 95 | 1015.5 |
| 20260903010217 | 83 | 306 | 0.0 | 0.0 | 0.00 | 0.00 | 0.00 | 94 | 1015.5 |
| 20260903005716 | 83 | 337 | 0.0 | 0.0 | 0.00 | 0.00 | 0.00 | 94 | 1015.3 |
| 20260903005211 | 83 | 120 | 0.0 | 0.0 | 0.00 | 0.00 | 0.00 | 94 | 1015.3 |
| 20260903004707 | 83 | 304 | 0.0 | 0.0 | 0.00 | 0.00 | 0.00 | 94 | 1015.1 |
| 20260903004202 | 83 | 316 | 0.0 | 0.0 | 0.00 | 0.00 | 0.00 | 94 | 1015.0 |
| 20260903003658 | 83 | 328 | 0.0 | 0.0 | 0.00 | 0.00 | 0.00 | 93 | 1015.3 |
| 20260903003153 | 84 | 124 | 0.0 | 1.0 | 0.00 | 0.00 | 0.00 | 93 | 1015.5 |
| 20260903002648 | 84 | 332 | 0.0 | 0.0 | 0.00 | 0.00 | 0.00 | 92 | 1015.1 |
| 20260903002142 | 84 | 148 | 0.0 | 0.0 | 0.00 | 0.00 | 0.00 | 92 | 1015.2 |
| 20260903001636 | 84 | 318 | 0.0 | 0.0 | 0.00 | 0.00 | 0.00 | 91 | 1015.1 |
| 20260903001131 | 84 | 355 | 0.0 | 0.0 | 0.00 | 0.00 | 0.00 | 91 | 1014.8 |
| 20260903000627 | 84 | 19 | 0.0 | 0.0 | 0.00 | 0.00 | 0.00 | 90 | 1014.8 |
| 20260903000126 | 84 | 82 | 0.0 | 0.0 | 0.00 | 0.00 | 0.00 | 90 | 1014.8 |
| 20260902235625 | 84 | 353 | 0.0 | 0.0 | 0.00 | 0.00 | 0.00 | 89 | 1014.8 |
| 20260902235120 | 84 | 287 | 0.0 | 0.0 | 0.00 | 0.00 | 0.00 | 88 | 1014.7 |
| 20260902234614 | 84 | 330 | 0.0 | 0.0 | 0.00 | 0.00 | 0.00 | 88 | 1014.9 |
| 20260902234113 | 85 | 336 | 0.0 | 0.0 | 0.00 | 0.00 | 0.00 | 87 | 1015.0 |
| 20260902233608 | 85 | 340 | 0.0 | 0.0 | 0.00 | 0.00 | 0.00 | 86 | 1014.6 |
| 20260902233102 | 85 | 288 | 0.0 | 0.0 | 0.00 | 0.00 | 0.00 | 85 | 1014.6 |
| 20260902232602 | 85 | 89 | 1.0 | 1.0 | 0.00 | 0.00 | 0.00 | 85 | 1014.7 |
| 20260902232056 | 86 | 342 | 0.0 | 0.0 | 0.00 | 0.00 | 0.00 | 85 | 1014.5 |
| 20260902231556 | 86 | 302 | 0.0 | 0.0 | 0.00 | 0.00 | 0.00 | 84 | 1014.5 |
| 20260902231050 | 86 | 325 | 0.0 | 0.0 | 0.00 | 0.00 | 0.00 | 83 | 1014.6 |
| 20260902230545 | 86 | 310 | 0.0 | 1.0 | 0.00 | 0.00 | 0.00 | 82 | 1014.6 |
| 20260902230044 | 86 | 338 | 2.0 | 3.0 | 0.00 | 0.00 | 0.00 | 82 | 1014.5 |
| 20260902225539 | 87 | 117 | 3.0 | 5.0 | 0.00 | 0.00 | 0.00 | 82 | 1014.4 |
| 20260902225039 | 87 | 58 | 1.0 | 1.0 | 0.00 | 0.00 | 0.00 | 82 | 1014.5 |
| 20260902224538 | 87 | 88 | 2.0 | 2.0 | 0.00 | 0.00 | 0.00 | 81 | 1014.2 |
| 20260902224034 | 87 | 125 | 6.0 | 7.0 | 0.00 | 0.00 | 0.00 | 79 | 1014.3 |
| 20260902223530 | 88 | 91 | 5.0 | 6.0 | 0.00 | 0.00 | 0.00 | 79 | 1014.3 |
| 20260902223029 | 89 | 70 | 1.0 | 2.0 | 0.00 | 0.00 | 0.00 | 79 | 1014.3 |
| 20260902222527 | 89 | 292 | 3.0 | 3.0 | 0.00 | 0.00 | 0.00 | 78 | 1014.2 |
| 20260902222026 | 89 | 80 | 3.0 | 6.0 | 0.00 | 0.00 | 0.00 | 79 | 1014.3 |
| 20260902221521 | 89 | 339 | 3.0 | 5.0 | 0.00 | 0.00 | 0.00 | 79 | 1014.2 |
| 20260902221017 | 90 | 144 | 3.0 | 3.0 | 0.00 | 0.00 | 0.00 | 78 | 1014.4 |
| 20260902220511 | 90 | 156 | 2.0 | 3.0 | 0.00 | 0.00 | 0.00 | 79 | 1014.5 |
| 20260902220006 | 90 | 128 | 1.0 | 1.0 | 0.00 | 0.00 | 0.00 | 79 | 1014.4 |
| 20260902215503 | 91 | 102 | 3.0 | 3.0 | 0.00 | 0.00 | 0.00 | 78 | 1014.4 |
| 20260902214957 | 91 | 129 | 2.0 | 3.0 | 0.00 | 0.00 | 0.00 | 77 | 1014.4 |
| 20260902214456 | 90 | 114 | 1.0 | 1.0 | 0.00 | 0.00 | 0.00 | 78 | 1014.4 |
| 20260902213956 | 91 | 178 | 3.0 | 3.0 | 0.00 | 0.00 | 0.00 | 78 | 1014.7 |
| 20260902213452 | 92 | 71 | 1.0 | 2.0 | 0.00 | 0.00 | 0.00 | 77 | 1014.6 |
| 20260902212950 | 92 | 336 | 2.0 | 2.0 | 0.00 | 0.00 | 0.00 | 76 | 1014.7 |
| 20260902212447 | 91 | 7 | 2.0 | 2.0 | 0.00 | 0.00 | 0.00 | 76 | 1014.5 |
| 20260902211943 | 91 | 356 | 1.0 | 3.0 | 0.00 | 0.00 | 0.00 | 77 | 1014.4 |
| 20260902211439 | 91 | 101 | 4.0 | 6.0 | 0.00 | 0.00 | 0.00 | 76 | 1014.5 |
| 20260902210933 | 92 | 104 | 1.0 | 2.0 | 0.00 | 0.00 | 0.00 | 78 | 1014.3 |
| 20260902210428 | 91 | 132 | 3.0 | 3.0 | 0.00 | 0.00 | 0.00 | 78 | 1014.2 |
| 20260902205926 | 91 | 97 | 2.0 | 3.0 | 0.00 | 0.00 | 0.00 | 80 | 1014.2 |
| 20260902205422 | 93 | 105 | 6.0 | 7.0 | 0.00 | 0.00 | 0.00 | 77 | 1014.5 |
| 20260902204917 | 92 | 216 | 3.0 | 3.0 | 0.00 | 0.00 | 0.00 | 77 | 1014.7 |
| 20260902204417 | 92 | 227 | 0.0 | 1.0 | 0.00 | 0.00 | 0.00 | 79 | 1014.5 |
| 20260902203913 | 91 | 144 | 2.0 | 2.0 | 0.00 | 0.00 | 0.00 | 78 | 1014.6 |
| 20260902203408 | 91 | 94 | 4.0 | 5.0 | 0.00 | 0.00 | 0.00 | 79 | 1014.6 |
| 20260902202902 | 91 | 98 | 3.0 | 5.0 | 0.00 | 0.00 | 0.00 | 79 | 1014.5 |
| 20260902202357 | 91 | 189 | 1.0 | 2.0 | 0.00 | 0.00 | 0.00 | 79 | 1014.4 |
| 20260902201854 | 91 | 28 | 5.0 | 6.0 | 0.00 | 0.00 | 0.00 | 81 | 1014.4 |
| 20260902201354 | 92 | 28 | 1.0 | 2.0 | 0.00 | 0.00 | 0.00 | 81 | 1014.7 |
| 20260902200848 | 91 | 92 | 2.0 | 3.0 | 0.00 | 0.00 | 0.00 | 81 | 1014.7 |
| 20260902200344 | 90 | 36 | 3.0 | 5.0 | 0.00 | 0.00 | 0.00 | 82 | 1014.6 |
| 20260902195839 | 90 | 121 | 1.0 | 2.0 | 0.00 | 0.00 | 0.00 | 81 | 1014.8 |
| 20260902195339 | 89 | 101 | 0.0 | 1.0 | 0.00 | 0.00 | 0.00 | 82 | 1014.8 |
| 20260902194833 | 89 | 315 | 1.0 | 1.0 | 0.00 | 0.00 | 0.00 | 83 | 1014.8 |
| 20260902194328 | 89 | 48 | 1.0 | 2.0 | 0.00 | 0.00 | 0.00 | 83 | 1014.9 |
| 20260902193823 | 89 | 152 | 3.0 | 5.0 | 0.00 | 0.00 | 0.00 | 84 | 1014.9 |
| 20260902193319 | 89 | 109 | 2.0 | 3.0 | 0.00 | 0.00 | 0.00 | 84 | 1015.0 |